GFSMW_2pvu_pres_036.txt.gz
Presure
168 143 158 161 159 155 160 165 163 161 167 170 172 173 179 180 173 178 166 173 187 187 181 192 183 182 186 184 192 227 200 217 229 227 223 221 217 216 218 220 217 211 215
157 187 179 175 173 171 168 168 168 170 172 180 182 183 182 185 187 189 181 175 177 192 182 192 183 197 188 201 212 234 222 215 204 204 221 219 218 199 225 214 209 206 200
186 172 163 167 177 187 186 183 179 181 179 182 177 182 180 160 183 187 160 181 195 197 183 191 179 219 229 196 189 202 180 169 230 177 174 170 179 204 195 205 199 206 199
185 186 184 189 187 175 144 151 181 187 189 181 180 182 179 185 193 150 192 202 172 166 174 176 173 192 181 189 173 185 204 170 212 207 210 223 215 207 205 201 199 199 199
185 180 177 167 191 191 194 191 195 185 176 179 184 183 182 171 192 157 180 192 178 193 151 209 227 196 192 159 186 181 190 192 191 194 196 194 197 202 193 193 195 194 195
169 164 164 173 183 187 185 168 172 186 187 189 193 190 192 186 191 194 189 194 164 191 180 150 177 206 180 181 194 220 211 194 222 222 227 230 237 240 249 242 232 226 223
169 158 159 158 160 188 179 187 188 182 181 180 183 196 198 192 158 196 217 194 193 173 222 217 214 196 199 225 236 238 250 266 257 249 248 246 242 239 239 239 235 231 229
195 179 196 184 170 171 182 184 195 194 175 174 201 175 177 229 210 182 190 239 221 227 220 223 214 223 242 258 257 270 292 283 276 277 274 257 252 250 243 232 229 224 227
191 190 199 182 181 178 178 174 178 171 169 183 190 196 190 198 204 201 190 189 213 217 182 223 238 239 288 283 286 317 313 321 306 307 287 266 268 267 256 245 235 231 228
209 200 193 194 195 192 189 186 195 204 206 209 209 207 216 205 207 225 218 219 212 181 271 101 287 276 267 269 273 258 263 273 265 267 267 279 294 254 248 259 258 245 230
217 215 205 201 206 211 214 218 218 230 232 211 203 203 230 221 220 215 214 234 270 259 270 268 265 268 254 271 280 276 262 271 301 247 228 236 252 263 283 256 248 234 236
218 218 221 222 220 217 215 218 220 211 216 242 224 218 213 223 220 225 253 269 247 266 253 265 277 252 242 268 355 273 212 358 236 227 339 329 308 305 294 263 283 244 234
219 213 211 211 208 207 213 214 222 240 213 192 223 207 224 229 225 260 255 251 254 263 270 254 250 247 248 294 263 370 321 278 354 351 353 321 306 299 289 267 258 282 241
221 214 212 213 215 218 232 229 218 207 215 160 227 228 229 258 258 276 271 248 248 251 255 236 241 285 263 271 377 410 344 247 327 323 342 343 323 304 291 281 254 278 271
220 218 219 224 226 227 226 225 219 225 225 221 248 255 258 282 274 258 244 242 271 251 237 254 257 227 255 265 252 433 352 182 326 308 310 314 330 307 318 308 266 266 274
244 224 223 221 218 221 222 226 221 224 240 263 259 278 273 264 252 243 285 271 250 234 248 272 253 232 219 219 266 318 310 353 335 318 308 309 161 298 296 295 288 276 270
247 250 246 234 231 230 237 261 257 261 251 276 275 266 255 248 263 275 265 251 246 250 269 243 246 238 253 257 235 246 280 300 290 302 345 335 330 322 313 325 287 297 267
241 244 246 249 252 249 252 257 254 270 274 258 255 250 262 264 260 268 277 248 255 257 233 228 248 264 261 259 265 249 236 242 264 280 285 277 191 281 285 290 284 273 265
250 249 245 246 246 248 252 246 272 254 244 245 256 290 280 249 265 277 266 258 259 241 230 210 263 253 251 251 250 245 246 246 246 230 231 235 245 251 252 257 255 257 248
238 239 243 249 244 238 260 266 249 242 240 240 295 274 258 267 270 277 267 257 255 234 215 209 217 238 240 239 239 242 244 246 244 242 239 238 229 226 224 220 219 216 222
238 267 257 251 250 249 256 244 239 237 276 239 277 254 268 269 248 251 261 218 208 217 217 222 221 241 237 241 243 241 240 239 239 238 234 232 232 230 230 230 229 230 228
248 243 238 238 244 247 231 237 229 257 265 253 267 239 249 283 283 251 235 235 234 221 214 223 216 212 225 235 234 231 237 239 238 237 233 230 230 227 224 222 224 225 218
235 236 236 246 237 235 235 225 231 256 262 250 273 204 228 227 230 232 237 205 236 221 218 217 213 213 205 227 229 225 225 224 223 225 226 224 225 222 224 221 215 213 222
240 246 240 235 241 238 221 224 242 248 259 265 243 284 244 225 226 237 233 221 197 228 219 212 216 218 210 213 214 222 221 220 220 223 219 219 216 221 219 217 215 219 242
240 234 232 240 226 222 220 216 242 249 250 256 264 254 289 251 243 238 236 214 232 239 220 217 215 214 219 214 215 219 218 217 218 218 217 218 219 223 216 229 229 252 256
235 230 239 227 236 221 215 235 236 238 240 249 202 277 256 263 262 246 240 236 234 233 239 221 219 220 212 205 216 217 215 210 215 211 212 214 225 213 227 236 243 258 271

GFSMW_2pvu_pres_039.txt.gz
Presure
147 160 166 159 162 158 162 164 162 163 162 160 157 157 158 158 161 163 159 170 174 167 178 190 192 182 188 170 159 193 193 169 193 163 178 197 195 174 195 175 198 162 204
169 169 158 157 162 163 161 164 165 160 160 161 164 167 166 153 158 170 169 162 169 183 179 189 179 179 170 167 184 166 167 187 163 200 194 206 192 183 194 186 189 189 192
177 174 157 156 162 166 150 158 160 165 166 168 167 171 172 168 172 175 169 191 160 188 189 180 172 180 193 171 191 188 174 193 176 154 200 216 193 196 182 182 188 213 205
172 178 180 170 167 169 167 166 168 167 149 165 158 171 170 185 180 175 195 194 195 155 200 169 191 203 198 178 200 195 174 199 199 204 208 204 222 215 220 210 227 225 220
155 165 173 188 179 176 176 170 174 181 185 187 186 185 186 161 182 194 181 167 172 183 186 192 200 197 243 184 203 183 204 221 225 232 217 221 233 238 249 248 237 251 250
167 157 151 151 187 174 176 187 187 181 180 180 190 178 171 176 191 200 198 144 182 198 187 178 183 190 200 204 210 220 226 202 203 210 228 251 215 210 242 255 251 254 251
179 161 163 168 179 178 182 159 156 153 157 159 192 179 160 170 177 186 190 185 184 171 197 189 216 222 243 215 228 223 209 235 252 223 264 274 276 272 279 268 269 267 272
190 190 187 172 159 161 165 164 167 169 167 162 160 185 177 174 186 175 180 179 188 194 195 214 214 244 226 220 212 230 246 275 277 282 274 266 264 284 260 253 278 269 248
195 198 197 193 186 180 178 178 179 179 180 182 172 170 169 190 178 184 202 191 198 209 209 212 209 198 217 226 232 128 253 276 269 276 271 274 244 251 241 241 247 256 251
218 201 198 194 199 193 189 184 185 186 187 188 189 186 186 192 179 198 200 210 212 236 215 235 153 227 220 250 254 250 277 275 266 259 246 292 350 241 267 221 273 266 236
227 219 212 204 198 198 195 193 189 188 190 183 190 191 200 193 198 202 225 223 209 230 243 235 221 231 271 274 267 261 264 247 279 292 273 396 379 424 314 323 201 317 238
237 224 220 217 216 216 212 208 202 199 198 196 201 164 202 199 223 253 221 237 237 155 225 235 248 276 273 256 260 265 243 275 264 243 297 356 367 370 364 311 315 324 296
240 240 240 231 226 226 223 222 225 227 230 228 228 234 227 224 221 233 240 242 225 224 237 280 278 264 252 271 252 249 269 246 242 388 332 351 325 221 372 331 310 301 300
242 237 238 238 239 81 234 232 228 223 226 235 225 235 217 235 242 219 237 225 233 250 285 267 252 266 272 254 251 254 263 273 278 332 312 336 316 312 329 357 322 299 292
242 237 236 233 231 231 233 231 220 245 238 231 233 239 236 230 222 228 233 236 269 285 258 249 273 269 252 275 249 231 265 261 261 277 350 372 322 321 319 329 333 314 288
246 238 234 233 237 236 224 248 238 226 225 222 221 217 220 229 231 237 255 290 278 255 242 273 277 255 265 250 258 263 261 253 253 259 255 297 297 324 319 312 301 303 290
242 238 236 237 229 228 234 218 220 222 219 221 220 225 233 237 254 274 285 263 253 280 264 269 271 274 251 228 216 250 243 247 246 247 257 250 230 265 279 278 300 316 318
251 254 239 240 229 225 225 225 238 247 246 241 243 249 263 261 279 274 254 265 276 264 266 279 267 242 226 221 240 242 249 243 248 245 241 243 245 248 232 227 243 249 252
250 245 258 260 257 255 251 249 246 246 243 248 256 255 273 274 264 251 301 267 272 281 278 267 245 227 223 226 229 223 233 238 241 256 249 248 242 239 237 241 241 238 237
256 260 250 240 238 238 241 237 238 251 253 245 259 271 256 252 287 279 271 276 265 248 272 232 238 226 214 228 218 216 216 233 227 236 236 233 231 234 229 229 227 226 225
261 245 246 241 239 242 248 247 245 186 251 258 259 248 244 272 292 252 246 294 285 229 226 237 215 231 219 221 225 219 217 214 216 224 223 225 227 225 223 223 219 217 225
252 251 246 247 247 240 240 233 250 246 250 244 247 238 238 275 270 262 206 235 230 248 243 207 241 212 227 220 218 216 222 219 216 221 223 222 219 219 219 219 215 219 218
237 236 239 234 242 231 244 247 239 246 241 235 236 231 259 273 266 292 249 232 231 237 245 235 211 241 235 230 219 217 215 220 208 217 222 220 216 210 214 215 213 217 217
241 243 242 237 246 249 232 237 247 239 230 228 223 256 257 262 280 266 285 259 250 243 241 242 235 237 245 240 235 222 223 220 209 216 219 218 222 216 221 221 214 217 238
253 250 247 247 234 235 229 247 240 231 227 224 226 245 245 248 251 271 293 266 264 259 249 244 234 205 236 244 243 239 232 236 236 234 218 218 217 224 220 220 233 243 242
236 234 235 234 228 242 243 234 234 231 227 220 234 235 235 236 246 248 269 299 276 276 258 263 252 210 246 247 247 243 242 242 245 245 244 212 210 219 228 241 234 239 255

GFSMW_2pvu_pres_042.txt.gz
Presure
173 167 163 170 166 162 163 159 154 153 159 159 160 159 153 155 159 156 157 160 161 160 162 155 171 168 167 154 176 190 191 197 158 160 194 192 189 206 180 159 213 203 201
162 153 170 159 166 155 165 170 168 164 167 166 165 165 164 166 167 166 162 160 160 160 170 167 163 167 169 178 189 156 155 151 170 195 187 171 167 224 213 214 206 203 228
173 175 161 167 170 166 165 168 165 160 160 160 158 158 158 161 163 161 145 169 172 149 159 168 152 150 167 172 161 185 197 181 182 192 174 197 241 227 224 219 227 225 207
180 180 171 178 162 167 177 165 164 161 155 142 146 157 162 159 161 135 149 145 162 172 179 140 181 159 185 174 173 195 185 166 174 200 216 227 217 230 208 226 237 259 263
153 149 176 176 174 179 179 170 164 164 170 169 166 153 164 173 167 157 158 169 166 158 155 167 199 160 173 161 162 177 196 209 199 217 214 227 234 214 234 246 273 233 238
176 166 153 155 184 173 160 155 187 178 173 172 172 172 174 172 158 160 154 173 180 181 161 199 161 195 191 202 178 193 191 211 222 239 240 229 228 245 282 251 278 262 256
161 168 193 178 155 154 153 153 151 163 179 173 176 153 159 178 183 182 186 153 153 151 161 173 185 188 198 200 196 211 218 240 239 233 234 246 181 268 284 280 278 266 260
183 187 166 166 169 183 186 181 175 175 153 149 148 147 178 182 161 152 152 154 168 191 156 191 180 192 199 189 211 203 241 239 230 236 216 291 278 260 270 270 260 257 263
198 189 187 189 185 180 178 181 176 174 178 185 182 160 154 159 157 166 182 183 179 191 193 197 198 197 207 205 211 246 230 161 233 284 278 261 255 272 265 288 299 310 296
235 227 210 205 182 181 185 188 187 181 180 170 187 188 188 185 184 185 188 172 189 193 195 197 205 204 210 231 249 228 232 237 285 270 255 267 260 276 262 251 387 386 384
257 247 239 234 227 215 195 193 192 192 191 189 189 189 193 186 201 194 199 194 198 198 199 206 167 228 252 242 240 227 242 281 261 252 269 266 259 242 282 380 346 354 367
257 257 257 255 235 225 220 217 213 203 202 199 200 198 198 195 191 197 198 203 197 207 248 259 250 253 234 240 229 251 279 263 252 263 274 246 267 270 309 356 333 335 371
262 256 253 255 255 255 252 252 247 243 222 213 211 204 203 198 201 211 213 237 246 245 247 253 239 239 239 231 272 273 254 254 266 267 248 256 254 259 266 344 332 342 374
254 253 252 251 255 257 248 245 244 244 244 240 233 230 236 237 240 249 246 244 240 245 241 238 239 236 244 283 267 254 276 273 260 241 257 254 254 258 256 290 338 334 377
272 274 271 264 253 244 237 233 233 232 237 235 239 240 239 246 240 237 242 245 228 229 230 239 240 259 281 263 268 265 281 261 241 249 242 250 253 248 258 261 250 286 322
274 260 255 253 248 239 237 238 238 243 240 244 233 232 229 246 251 233 247 228 234 237 245 254 288 282 250 286 261 280 263 238 224 233 231 236 236 230 247 250 250 255 241
277 260 249 244 244 245 244 242 239 240 249 244 245 237 239 232 240 232 226 232 249 272 272 289 261 252 283 268 286 267 247 222 230 228 223 222 219 231 239 237 239 241 237
278 270 271 269 268 263 252 249 247 245 237 230 231 235 225 228 227 224 232 261 265 288 271 272 302 269 276 290 270 249 235 222 235 226 223 221 220 221 234 223 228 230 230
270 266 255 258 248 243 240 241 243 234 229 235 240 235 229 228 226 254 249 263 282 255 299 259 272 281 252 275 240 245 236 221 218 221 219 226 223 220 222 225 218 218 222
284 280 256 246 245 238 236 228 230 228 230 247 256 238 253 252 241 256 282 263 251 280 277 242 219 210 216 228 242 205 204 226 230 218 220 222 216 224 213 221 221 220 215
266 269 268 266 251 239 236 235 237 244 252 250 243 238 237 246 249 266 253 244 263 275 269 254 241 232 241 248 236 242 238 217 233 233 227 223 226 222 211 224 230 229 217
255 250 253 256 256 254 255 256 256 248 244 237 236 243 233 253 259 246 240 269 281 267 275 257 245 238 237 241 241 238 236 230 243 238 237 237 240 242 239 237 216 234 211
267 262 259 250 249 248 259 245 241 244 244 242 235 227 250 249 245 236 247 247 268 274 266 278 261 255 251 248 246 242 233 206 234 241 238 239 240 245 249 248 254 258 215
245 246 248 247 244 244 240 244 246 236 228 230 236 242 245 242 237 225 242 230 244 250 268 301 293 278 270 263 259 250 249 248 246 244 247 247 248 249 252 250 206 217 228
264 252 243 238 237 234 231 235 241 236 226 239 239 240 241 236 227 232 232 228 237 235 243 248 269 300 280 254 242 257 258 259 259 259 256 246 249 232 257 231 225 228 227
258 264 264 260 237 236 232 233 250 253 247 236 233 239 234 236 227 233 224 220 224 231 233 237 242 248 304 292 280 273 267 238 264 264 260 258 259 224 227 226 224 233 246

GFSMW_2pvu_pres_045.txt.gz
Presure
171 171 164 160 158 161 151 149 151 151 150 153 153 155 153 162 165 143 145 150 155 160 161 162 172 163 162 159 165 176 142 167 157 171 180 193 172 161 187 200 192 210 214
168 174 166 170 161 166 142 137 133 143 151 153 159 157 153 152 152 153 154 159 161 160 162 157 157 152 136 164 142 142 158 155 171 179 185 158 186 174 199 193 204 202 240
177 174 166 168 169 171 163 161 164 163 161 163 161 161 162 160 161 163 165 167 164 158 163 136 149 153 170 146 150 170 170 176 177 173 161 159 186 180 186 194 232 239 237
186 177 177 164 164 161 158 158 164 168 166 157 155 150 158 160 160 152 153 160 161 142 163 165 166 165 166 172 175 182 183 157 159 191 161 193 200 197 205 226 231 242 232
159 192 183 181 171 167 165 166 168 166 154 159 163 164 167 168 164 160 167 159 159 167 167 166 176 175 168 177 152 150 152 177 171 167 195 196 195 207 210 215 237 242 305
178 156 156 194 187 179 176 172 173 171 173 166 163 166 169 175 167 167 170 172 175 179 174 167 166 177 179 181 153 158 164 173 179 191 196 192 210 219 169 243 271 291 269
168 185 197 187 153 166 160 174 177 170 178 176 170 175 177 168 159 170 160 158 160 153 181 182 161 176 188 157 160 196 188 191 198 197 198 214 236 242 245 244 287 287 239
182 174 170 168 166 151 151 149 149 149 149 151 151 149 156 151 150 150 150 146 171 153 152 179 155 193 159 197 189 204 201 206 202 209 223 238 237 241 287 270 287 273 278
188 184 180 173 172 171 170 168 172 178 181 178 175 177 179 177 154 157 180 179 178 177 175 172 165 191 188 189 200 199 200 198 217 251 242 232 241 283 273 255 269 277 273
220 204 186 183 180 181 181 180 182 180 170 161 161 161 163 163 164 167 176 174 175 164 190 182 183 192 188 200 203 202 208 253 245 243 229 246 284 267 284 269 264 270 269
247 253 256 192 187 184 180 186 184 180 180 176 183 187 185 187 190 187 183 188 190 188 190 195 195 206 206 203 203 241 253 240 243 242 249 281 272 279 273 259 252 265 260
258 258 257 257 256 255 253 251 190 186 186 189 187 189 189 188 183 181 183 191 200 205 196 206 213 207 208 251 258 255 243 239 245 260 280 266 268 279 260 235 248 241 241
256 253 253 252 250 259 255 241 244 247 217 206 205 191 207 213 222 220 219 213 177 218 234 240 262 185 256 254 248 236 236 253 280 275 262 274 279 262 238 222 233 228 245
270 274 268 267 263 262 268 265 265 263 257 257 256 252 250 251 258 248 245 246 250 254 244 253 248 251 237 250 235 237 263 265 253 254 274 283 265 243 224 234 228 228 231
319 310 285 271 258 261 266 262 261 254 256 254 251 245 246 243 246 241 240 238 245 260 242 252 246 240 247 236 236 273 289 280 253 276 288 268 251 214 226 233 226 231 225
318 316 309 269 269 267 254 248 245 247 247 250 247 240 247 254 238 236 233 257 254 233 244 236 241 238 237 238 270 291 262 321 271 291 269 249 239 227 225 218 228 224 235
319 325 325 306 301 293 283 275 262 254 245 237 233 248 259 238 233 243 239 251 235 238 234 241 246 242 251 280 280 302 265 276 288 279 257 239 236 224 226 222 226 228 235
307 309 292 302 292 286 285 292 277 248 243 244 264 250 242 250 240 254 244 243 235 233 238 240 250 267 294 258 290 266 233 291 222 263 237 193 227 236 233 230 233 234 233
289 307 286 282 286 280 267 259 259 268 280 267 262 246 231 253 248 246 243 230 229 233 263 269 270 277 248 251 271 255 220 281 236 230 238 235 239 237 235 234 241 240 242
289 296 275 287 284 274 260 260 273 267 261 255 254 254 248 239 242 233 226 235 262 244 246 269 259 245 284 272 267 255 248 228 231 239 236 237 238 238 206 230 241 242 251
290 278 285 272 261 257 249 249 247 246 249 253 248 243 240 231 228 226 230 247 240 247 260 247 247 277 275 281 269 258 250 247 247 246 242 245 240 242 240 241 243 247 250
270 263 264 270 279 272 263 260 252 247 248 230 239 244 230 225 230 242 248 245 246 257 245 238 235 241 262 275 299 281 267 261 259 253 253 255 252 250 250 252 255 259 261
279 264 261 262 263 260 264 262 263 261 262 262 256 255 252 251 242 242 242 235 250 251 236 234 231 227 235 237 247 259 301 282 269 264 249 248 260 259 252 265 266 265 233
253 264 259 258 247 244 245 242 247 253 249 243 237 248 243 232 233 234 228 246 246 243 227 232 225 233 226 234 231 231 244 267 295 288 280 279 280 280 263 230 230 231 223
244 248 243 238 254 260 254 246 237 240 243 252 242 238 238 233 226 242 233 238 246 237 220 231 222 218 225 225 225 220 218 227 228 224 222 224 223 216 222 230 235 234 231
252 257 246 240 239 246 244 246 248 244 241 239 241 228 225 234 224 246 238 239 239 234 223 229 221 212 216 220 216 219 220 251 243 242 240 236 234 232 232 231 230 233 237

GFSMW_2pvu_pres_051.txt.gz
Presure
170 162 166 174 166 160 174 136 165 151 147 150 160 150 153 151 143 143 143 142 138 153 145 145 139 140 150 140 157 147 140 164 160 158 148 168 170 163 169 169 147 191 177
184 183 155 163 167 184 177 184 155 171 153 156 156 149 148 152 154 151 151 150 151 155 151 150 146 153 158 149 142 163 157 151 154 171 161 171 175 177 165 188 177 187 189
182 135 138 159 127 141 184 179 160 157 171 158 142 151 155 145 148 145 130 149 125 133 142 152 157 157 160 160 157 149 167 168 166 169 169 175 172 158 184 172 173 181 182
192 180 163 156 127 158 161 158 185 189 171 168 160 161 162 161 159 161 161 160 161 162 160 149 152 160 155 161 153 164 165 168 165 166 166 159 171 183 171 173 184 182 185
207 191 141 158 194 158 154 159 152 127 187 173 164 169 166 164 161 156 155 151 152 167 168 169 160 162 160 154 159 168 168 166 165 155 149 164 186 168 174 180 184 185 194
207 169 181 176 179 171 166 166 188 185 191 145 179 167 168 170 167 164 165 165 158 158 160 158 165 168 165 168 174 170 170 154 152 147 182 173 172 182 191 188 186 148 204
228 199 208 146 146 165 194 176 169 175 175 192 178 179 167 169 171 169 168 168 167 156 164 165 161 162 170 169 175 175 152 177 166 185 180 176 186 192 191 191 194 239 249
243 208 207 200 192 188 158 172 176 174 199 157 153 149 144 179 178 177 166 176 175 173 171 172 179 160 146 152 150 154 164 188 192 186 182 183 184 190 190 194 260 257 247
237 228 201 211 199 189 150 169 157 176 170 194 198 185 167 154 177 179 173 150 162 156 152 149 152 150 153 156 164 187 174 168 182 189 184 185 185 196 194 236 256 254 248
242 236 223 220 211 192 196 192 172 162 179 163 157 162 178 177 160 157 159 149 165 179 178 153 171 163 164 163 172 184 173 186 174 187 190 186 195 268 211 250 249 251 261
268 235 230 223 217 224 206 192 193 183 164 167 168 162 162 195 201 172 175 188 185 174 161 164 186 164 163 173 167 173 184 176 183 172 184 246 251 203 255 248 254 255 281
285 287 238 234 224 226 219 215 219 189 186 147 147 179 147 160 167 166 165 167 159 168 172 171 180 163 176 179 179 183 188 188 174 252 212 246 266 259 256 258 252 290 270
282 281 282 280 231 228 228 226 219 164 191 186 192 191 189 186 181 176 169 174 182 170 171 171 168 174 180 186 179 195 207 217 127 261 222 248 256 260 265 284 291 291 282
291 281 281 284 294 280 259 244 244 248 252 237 233 204 197 194 193 186 185 182 154 175 159 169 179 163 191 213 247 245 264 185 233 250 252 252 254 277 289 283 264 256 264
326 331 337 275 275 298 287 274 265 260 260 258 259 260 262 266 259 270 279 279 257 193 235 187 181 201 191 231 232 245 234 154 242 252 249 252 265 277 291 295 279 265 253
302 308 327 330 278 284 293 286 291 287 283 280 282 275 275 276 273 272 264 247 248 256 247 233 234 239 234 258 255 225 136 246 252 246 257 243 277 268 298 279 268 262 246
320 287 304 316 322 345 363 298 255 180 263 275 271 269 263 262 258 258 259 244 236 238 250 233 238 236 265 259 238 254 145 251 246 246 250 268 263 252 259 285 276 264 259
313 310 312 289 291 311 324 338 362 342 348 330 304 280 276 285 268 247 248 251 250 247 244 239 228 264 248 242 253 244 234 241 242 242 262 265 248 243 242 246 267 283 273
308 306 312 315 340 279 281 282 317 301 304 337 328 316 327 328 315 306 293 278 266 266 276 259 253 240 252 241 228 232 240 238 245 250 265 252 241 242 233 230 236 237 233
281 293 305 302 298 317 319 329 333 326 289 275 283 298 292 297 299 293 288 286 275 246 251 238 252 236 241 229 227 242 229 242 256 251 255 243 238 230 227 236 232 255 250
273 271 279 297 294 298 304 305 309 315 298 304 298 267 258 268 282 267 265 259 256 251 263 256 240 230 229 239 242 231 230 253 242 250 247 237 232 228 224 218 230 228 227
265 256 267 277 286 291 284 304 288 303 289 285 282 280 289 284 275 271 266 255 254 235 250 239 235 232 238 228 228 246 237 235 237 245 243 232 229 226 222 216 217 218 215
267 253 256 259 274 276 280 274 290 287 299 273 260 265 263 260 254 245 251 263 259 242 239 225 238 227 229 220 241 237 235 239 234 244 240 231 228 226 218 212 212 217 219
266 264 278 253 246 265 269 277 280 270 270 263 271 277 266 274 271 251 250 241 234 226 226 228 232 231 238 231 235 234 238 238 245 237 240 234 227 218 217 215 215 215 218
266 270 279 258 263 250 257 270 257 265 272 275 259 260 259 252 242 250 237 243 245 228 234 226 243 236 225 238 232 238 239 226 244 233 237 236 235 221 220 219 218 220 216
269 260 269 272 266 253 259 255 262 268 257 262 264 271 268 253 249 248 245 245 245 246 251 241 230 223 233 236 234 228 225 241 233 237 238 234 232 238 231 221 216 219 223

GFSMW_2pvu_pres_054.txt.gz
Presure
201 190 164 177 161 157 169 173 163 176 123 166 167 165 165 175 151 148 150 149 145 146 147 151 144 149 152 143 141 158 138 134 153 156 160 156 170 150 156 169 178 166 191
174 211 200 191 148 182 161 160 171 147 131 139 130 120 170 172 158 145 153 144 155 155 151 150 150 154 127 159 145 154 153 161 157 162 168 164 165 166 166 175 176 179 183
191 196 203 200 200 140 198 158 152 165 173 162 172 171 120 174 160 143 158 158 139 152 146 160 137 126 148 161 161 162 151 153 159 159 161 160 167 157 166 168 175 187 174
173 198 200 192 180 166 138 188 172 163 161 159 184 144 174 176 139 151 166 157 158 124 157 132 163 164 158 152 152 154 154 163 155 157 169 164 164 152 154 176 187 172 181
193 189 218 206 198 188 205 203 164 177 162 175 160 163 168 181 187 187 162 169 170 162 160 157 155 154 157 161 168 166 162 165 158 167 165 160 179 151 183 186 191 164 200
201 208 199 192 190 201 196 186 184 181 121 126 177 166 161 174 180 180 192 175 163 164 165 163 167 169 166 161 160 159 159 162 170 178 173 153 178 173 174 176 186 197 191
200 200 209 207 194 191 200 184 181 182 166 171 133 132 134 154 169 163 170 190 182 170 167 167 148 155 160 159 157 167 166 164 152 173 153 173 163 174 175 194 186 189 178
203 207 203 208 217 201 199 200 206 206 193 166 139 169 169 194 173 159 156 161 180 191 128 136 175 174 171 162 171 167 174 173 181 155 184 172 174 187 177 181 192 190 199
265 255 248 245 227 243 207 198 205 218 213 198 182 173 173 169 197 172 167 148 145 147 147 146 155 150 150 157 164 150 154 152 166 163 183 169 177 170 181 183 208 205 213
249 247 244 248 254 249 259 216 229 223 216 131 145 142 136 150 163 177 179 170 156 170 187 197 192 138 188 153 177 153 176 161 178 160 168 188 171 174 180 143 215 236 266
294 245 233 244 258 252 249 267 246 230 227 207 205 203 195 180 165 145 148 190 156 154 152 135 133 194 167 184 181 161 164 167 160 171 176 183 187 189 141 209 219 262 247
293 291 250 272 245 244 245 247 253 246 240 227 194 193 195 195 182 180 179 150 171 162 165 150 146 154 164 155 169 169 153 174 175 162 171 184 223 98 233 241 250 252 216
278 289 299 276 280 255 244 245 248 250 251 258 239 201 199 205 193 181 183 150 183 164 159 178 177 177 166 172 155 177 161 191 154 188 185 216 202 227 208 185 249 256 287
328 297 283 278 280 278 281 263 244 245 248 249 248 244 203 205 203 204 198 159 187 171 143 180 175 170 174 201 175 201 178 197 215 164 206 220 251 182 238 195 255 261 273
310 324 312 287 279 288 295 298 291 279 251 251 250 250 251 237 214 171 212 181 193 195 203 196 193 193 195 200 200 214 204 205 245 211 223 247 257 235 230 246 253 277 262
286 281 310 325 336 339 298 276 284 298 291 297 292 288 254 252 250 249 251 257 251 251 250 258 276 283 261 248 242 254 254 237 255 264 242 216 251 246 214 242 255 277 252
276 299 301 285 290 311 322 332 347 336 301 250 297 294 286 175 295 290 289 290 280 275 267 273 260 260 251 247 256 246 249 253 210 207 261 247 244 234 246 239 261 265 249
313 317 303 302 307 311 299 297 306 319 343 376 345 350 208 275 265 259 286 275 279 277 278 267 260 256 267 254 245 221 271 257 255 247 240 249 230 242 249 256 264 253 242
297 293 296 134 306 307 288 290 291 292 291 292 308 328 343 334 337 303 313 341 319 317 299 299 287 276 277 224 279 265 252 245 227 253 238 225 236 246 250 239 254 247 239
275 276 283 288 295 307 304 306 324 337 333 349 278 284 290 356 290 294 313 331 326 321 318 299 281 277 262 256 255 240 247 242 245 234 222 231 236 253 236 242 251 242 240
266 269 270 277 276 282 300 299 298 318 310 314 324 332 331 330 344 306 272 269 280 279 283 276 270 275 271 268 250 239 245 246 239 227 233 231 230 243 240 241 247 243 237
272 271 262 265 267 264 266 285 294 291 301 303 304 311 303 303 308 308 318 285 250 253 251 274 258 255 247 242 233 256 244 234 234 237 237 223 238 243 241 238 241 241 240
278 289 297 271 255 261 260 264 279 290 278 286 276 297 284 290 277 277 281 283 288 283 274 270 270 256 263 256 235 248 239 227 227 232 226 236 227 235 245 238 242 231 241
272 275 281 274 267 250 250 262 265 279 282 271 282 270 293 277 280 274 269 274 268 259 255 248 252 238 250 252 240 240 227 226 223 235 236 225 238 234 236 241 237 238 242
311 293 282 268 261 263 274 254 251 256 277 276 273 272 259 272 268 258 255 256 254 244 247 256 258 251 240 226 229 227 227 229 229 241 230 231 240 232 234 244 244 232 236
310 290 278 275 264 266 276 260 256 250 261 259 252 259 263 271 261 253 260 253 247 255 239 239 237 228 232 239 231 228 225 240 239 230 230 242 243 232 238 251 232 236 251

GFSMW_2pvu_pres_057.txt.gz
Presure
185 205 184 190 174 171 177 176 181 182 150 167 155 149 169 168 167 133 166 142 152 146 150 146 149 145 143 148 148 160 160 145 146 126 142 144 158 159 153 166 172 168 169
148 163 206 189 182 160 165 174 172 180 182 182 172 146 138 168 147 177 164 168 153 159 166 154 160 166 156 150 143 157 153 141 126 158 152 157 156 144 169 169 166 170 160
194 144 151 210 206 186 168 161 169 137 166 166 154 173 176 126 172 159 167 152 134 159 164 125 149 167 153 123 153 158 154 124 162 158 156 152 169 165 163 161 169 178 169
176 174 176 147 155 198 193 182 173 170 140 170 160 158 157 160 139 126 162 166 174 171 172 161 153 136 132 151 163 127 169 166 166 162 169 168 153 165 160 167 159 158 176
188 187 175 226 216 190 195 191 192 190 187 131 131 167 167 174 163 162 141 129 167 172 175 164 172 172 173 164 162 158 155 157 165 169 154 158 159 169 170 169 180 163 151
189 179 181 156 164 209 210 180 172 177 168 200 197 132 154 178 173 177 164 163 172 162 177 176 167 171 180 180 178 181 181 173 147 167 168 167 171 176 171 167 165 166 194
191 204 179 179 203 191 180 222 202 180 188 192 210 172 193 182 142 141 190 181 187 161 155 156 141 135 160 179 185 182 137 184 185 186 182 162 148 152 150 173 187 179 186
207 192 193 202 178 182 186 189 188 224 185 179 188 219 186 185 179 147 122 160 179 170 189 191 179 169 164 138 145 144 149 151 147 177 195 176 199 143 187 161 199 194 198
228 221 208 186 182 183 186 187 189 191 194 191 192 188 193 193 192 190 185 177 153 132 170 168 170 168 162 160 177 148 143 159 132 166 133 158 139 168 156 173 172 178 185
242 230 223 218 194 193 189 184 187 190 192 195 201 203 201 197 175 193 195 207 180 162 188 174 160 144 172 167 177 177 166 178 151 162 163 137 162 137 172 163 179 188 176
234 230 236 227 214 212 210 201 195 190 190 191 192 200 204 203 208 206 200 193 201 210 153 124 136 181 156 158 145 149 133 152 169 139 157 170 157 171 165 169 183 190 248
267 261 253 233 223 217 211 211 210 208 207 207 205 205 211 214 244 216 211 200 196 204 210 187 166 197 202 185 156 163 173 155 138 164 163 137 181 194 198 193 261 206 204
269 263 260 262 254 248 237 231 229 231 232 239 248 251 248 238 233 254 226 215 209 222 216 214 180 204 184 155 193 194 137 160 171 151 171 183 196 183 259 204 196 265 185
310 294 267 269 276 257 272 285 244 255 247 250 253 250 251 253 257 269 260 246 239 229 226 221 209 194 199 194 171 194 198 180 200 173 169 190 232 199 206 239 239 234 249
286 300 273 273 250 282 281 251 277 255 256 248 247 241 244 249 251 256 256 259 262 264 223 243 221 219 202 201 202 204 195 179 194 224 202 201 167 252 247 256 257 259 251
295 295 289 306 320 331 332 288 292 274 254 253 252 289 98 248 247 207 252 256 255 254 250 247 249 251 250 254 209 159 159 205 205 269 253 257 242 267 272 238 247 242 233
267 274 290 294 287 295 316 329 333 315 309 276 296 291 286 284 277 276 272 271 249 265 235 269 255 256 278 244 239 272 245 237 266 274 247 258 252 234 246 256 244 240 248
295 324 288 278 268 279 290 294 298 310 331 339 323 304 304 301 291 289 291 291 296 240 296 286 275 276 202 275 263 279 262 260 282 297 268 256 251 249 246 249 227 244 231
303 311 312 314 317 315 314 312 287 280 284 301 302 305 306 310 312 322 325 337 338 339 295 289 284 303 267 252 264 283 282 304 273 281 281 255 252 248 239 236 237 226 239
275 283 286 285 286 292 300 305 311 313 140 317 328 340 292 292 297 350 292 298 299 308 309 310 344 338 336 336 333 323 304 291 279 262 248 247 244 231 236 243 228 235 227
273 277 275 274 274 277 282 288 283 286 301 298 303 321 318 313 323 334 339 317 320 278 274 280 280 272 308 257 253 277 278 262 254 247 251 252 238 224 249 229 228 231 231
262 263 258 260 263 269 271 266 275 270 278 293 298 294 301 304 319 317 320 314 313 305 290 294 278 278 263 261 262 270 254 251 250 253 253 251 232 246 227 230 231 226 226
275 281 278 284 288 284 270 262 256 261 260 273 287 283 286 294 306 302 295 295 295 299 318 289 271 276 287 277 276 263 265 245 237 228 240 246 243 243 230 230 230 230 228
258 261 278 280 284 280 283 299 267 251 252 260 272 281 277 278 278 289 281 283 283 277 287 287 292 287 261 255 261 263 266 256 246 227 246 246 237 235 233 226 233 228 242
259 254 252 272 270 273 278 278 272 254 252 250 261 266 281 269 272 273 283 270 268 267 274 272 271 262 263 252 242 249 246 249 236 242 242 237 224 224 228 228 231 245 231
273 265 260 249 255 301 281 267 266 265 266 256 251 249 270 275 267 266 261 260 270 263 252 254 258 263 245 238 238 250 249 245 242 229 226 230 232 229 239 246 245 238 238

GFSMW_2pvu_pres_060.txt.gz
Presure
207 143 168 178 187 174 173 167 174 166 159 173 172 165 158 167 150 159 128 134 156 157 156 160 164 159 157 157 158 152 154 164 165 151 162 127 170 168 173 172 163 163 171
158 150 181 175 181 145 180 175 177 180 165 167 167 163 163 162 165 163 150 147 154 164 172 167 167 167 167 171 165 169 151 145 149 173 147 167 168 135 163 170 171 181 180
189 149 164 216 180 179 177 186 168 178 175 186 174 174 172 164 162 165 168 178 165 150 176 141 171 172 179 140 121 172 171 164 167 169 151 168 171 181 178 178 183 185 173
183 190 153 149 160 187 183 151 188 177 180 181 162 179 164 167 141 171 176 174 170 164 125 164 162 152 171 170 155 176 169 165 162 174 168 168 182 179 179 143 163 185 185
164 158 230 218 154 147 144 145 149 153 194 203 176 182 172 168 164 166 166 161 171 165 172 165 127 125 172 175 153 140 136 193 167 178 143 166 146 166 150 151 159 162 160
193 182 205 222 214 171 157 184 181 148 150 173 189 201 181 181 176 177 177 162 165 168 150 173 182 183 183 185 176 180 166 179 152 153 151 189 179 152 149 141 167 160 166
192 189 172 160 175 212 172 172 181 146 150 151 157 153 150 198 178 178 173 175 176 180 123 180 168 162 182 171 179 189 179 195 155 170 166 173 172 129 164 157 166 138 193
200 190 185 188 184 172 223 244 184 227 217 172 172 175 222 213 153 194 188 186 180 176 175 182 157 187 120 139 190 176 182 133 132 182 171 175 166 177 167 157 146 158 148
214 204 199 186 182 191 199 184 180 173 174 198 184 181 205 170 211 193 192 161 188 195 194 185 184 198 200 201 124 188 135 192 189 191 194 189 194 180 158 150 169 171 139
227 218 211 206 195 187 186 195 226 213 213 216 191 189 179 181 228 187 205 199 220 223 223 165 186 181 208 206 187 184 153 151 200 192 134 176 194 144 143 139 168 140 179
232 231 220 215 215 218 211 210 219 223 233 194 197 205 201 187 180 176 183 190 188 188 194 187 196 196 195 200 201 199 193 184 163 142 204 204 201 200 198 188 182 204 188
236 235 233 226 224 215 214 221 231 208 218 219 221 191 205 182 183 184 184 187 186 191 192 183 187 194 217 208 193 195 206 200 196 184 197 198 211 136 141 211 184 191 176
256 256 254 244 237 236 230 223 219 229 229 222 224 223 220 220 197 192 192 192 191 194 197 201 201 200 204 205 208 207 243 215 217 135 221 219 152 212 205 191 203 197 199
263 270 273 273 266 251 242 239 235 228 228 239 234 232 233 217 222 221 225 221 218 216 215 213 216 215 215 216 234 236 229 238 238 235 235 228 228 229 226 243 254 220 207
279 269 312 281 289 278 277 273 269 266 250 238 233 227 224 225 227 229 230 231 229 234 232 230 232 253 265 259 241 252 238 272 260 249 237 218 244 236 244 250 267 260 267
270 282 289 299 317 298 321 272 278 271 274 269 270 259 247 241 243 242 242 216 107 252 253 254 251 254 246 251 249 245 232 248 257 269 258 262 229 252 278 269 242 260 283
289 288 269 270 288 307 304 288 308 325 300 320 326 284 266 275 252 249 262 258 258 259 249 255 251 248 244 252 278 287 274 267 182 232 260 251 251 270 270 287 284 286 267
286 292 291 287 279 277 277 289 300 299 295 311 303 301 327 322 286 292 259 250 275 254 251 279 277 256 268 264 247 248 263 269 267 267 272 268 273 267 250 278 291 270 262
284 285 284 288 293 299 302 291 288 284 285 285 288 292 299 307 319 324 330 336 339 350 356 345 309 293 288 310 338 334 327 283 316 300 273 310 309 298 293 282 255 250 252
286 294 300 304 310 319 313 292 317 316 315 317 305 305 314 284 292 294 295 295 297 296 320 315 319 311 293 314 311 326 323 322 325 325 318 304 299 281 281 265 250 236 238
272 277 282 287 289 287 285 286 285 284 288 296 296 299 303 307 307 308 322 329 333 327 352 347 330 346 313 295 279 294 312 277 291 299 300 286 278 272 259 245 239 246 241
271 269 273 273 272 270 273 271 279 279 276 275 284 281 280 285 291 300 296 304 304 318 324 334 322 332 326 301 291 296 277 275 260 252 258 257 265 254 239 234 254 241 227
277 281 271 271 264 264 264 267 267 266 263 270 266 272 268 271 272 291 289 284 303 311 304 314 300 312 302 278 289 269 266 270 251 244 239 254 237 242 257 226 226 240 248
262 280 285 285 280 275 283 280 280 285 292 293 265 263 261 261 264 267 285 285 283 292 286 283 278 283 297 302 280 260 253 254 262 255 258 254 229 233 237 246 241 230 227
264 261 281 274 279 266 258 259 276 273 275 276 291 270 260 256 255 262 287 273 277 282 273 274 273 270 273 274 277 281 281 263 258 241 242 252 247 251 247 249 241 243 233
267 264 259 263 276 263 260 258 257 261 269 273 283 276 261 254 252 250 249 274 263 258 259 278 269 262 261 258 256 249 263 258 248 247 242 240 243 235 249 243 243 236 230

GFSMW_2pvu_pres_063.txt.gz
Presure
179 197 200 174 181 183 192 190 175 174 163 171 160 166 162 162 155 151 151 150 157 157 158 153 153 122 162 160 157 161 162 168 170 171 167 146 133 178 168 169 169 176 167
174 182 193 203 179 171 187 189 176 170 180 171 173 153 147 142 149 155 151 150 149 157 168 168 153 163 166 169 165 125 172 141 156 187 146 175 167 162 151 170 170 184 145
166 177 178 201 162 179 163 183 184 180 173 168 179 180 153 169 167 164 164 160 159 162 168 160 161 161 162 161 168 171 164 146 137 145 149 146 166 178 152 187 193 172 136
186 176 177 179 189 156 161 189 188 179 174 171 161 183 179 177 166 168 170 171 173 165 165 160 160 136 143 173 177 155 165 171 170 170 170 182 176 188 181 191 181 139 185
168 187 180 169 173 201 144 144 159 163 187 188 167 173 152 185 162 155 170 167 177 175 177 182 189 178 181 177 159 172 173 174 175 181 149 131 188 144 157 193 177 141 168
169 170 171 183 173 168 201 217 158 153 149 170 177 175 169 178 161 175 177 185 179 178 177 181 175 182 181 173 175 165 153 173 185 134 183 179 140 126 187 156 180 171 193
185 172 168 158 163 180 169 201 200 156 153 151 149 148 157 168 148 157 148 150 177 152 154 167 167 143 185 182 165 144 124 156 130 181 162 147 163 157 152 135 139 178 181
199 184 178 170 166 172 190 166 192 192 202 209 161 161 155 177 151 151 154 146 148 152 153 161 176 194 207 172 194 188 184 95 155 150 184 178 126 182 198 187 193 188 148
205 202 189 190 176 173 170 194 191 180 175 218 231 223 216 214 192 165 195 167 165 157 136 171 171 181 156 206 211 195 159 193 181 184 189 186 178 192 172 199 203 186 192
227 204 198 188 191 190 184 179 179 182 187 182 173 208 189 178 206 170 173 184 232 223 219 172 157 176 210 221 176 222 200 185 163 201 198 201 189 181 183 190 193 197 207
243 256 245 226 227 200 204 199 194 195 192 179 182 179 170 177 182 213 191 174 173 173 238 238 216 204 173 176 175 188 177 182 185 178 182 180 176 178 188 190 197 208 208
250 241 265 244 233 224 224 210 209 207 202 203 201 199 186 182 181 188 199 184 233 197 185 187 189 228 216 184 182 176 182 181 182 180 184 188 193 192 200 200 202 216 223
277 252 247 241 250 238 232 228 222 215 214 215 214 211 209 211 208 201 203 198 223 227 231 233 211 206 220 171 196 187 196 197 199 203 205 201 204 202 193 211 153 237 234
269 272 275 257 250 243 238 232 230 227 226 225 225 221 216 217 217 217 218 222 224 222 219 215 222 224 228 226 228 231 215 220 198 211 204 215 217 223 255 243 256 233 226
279 272 271 270 270 263 250 246 243 238 233 230 227 230 229 225 228 232 230 227 217 228 229 229 232 235 147 233 233 229 228 231 237 230 228 249 251 254 259 206 245 266 254
276 279 260 288 293 297 278 277 271 255 248 246 244 242 238 236 235 235 237 240 239 238 236 237 239 241 106 190 230 234 95 236 240 116 271 262 254 242 242 237 263 246 254
267 276 264 259 261 258 262 282 284 283 281 275 293 292 280 325 284 282 273 260 261 261 255 252 247 249 251 252 250 250 257 259 261 254 255 242 243 264 239 255 252 257 208
280 281 282 283 287 292 291 291 294 289 280 276 289 305 310 313 316 312 334 317 312 286 310 284 262 257 254 255 259 261 259 270 252 256 253 255 268 277 267 264 265 287 291
272 278 285 288 294 293 290 291 292 299 300 297 288 277 268 267 290 294 294 297 297 303 274 309 285 328 267 303 281 317 287 277 276 345 345 354 332 331 327 325 268 314 302
261 268 277 285 287 279 277 280 331 294 285 283 284 282 287 318 320 292 291 293 292 290 292 295 296 298 294 292 292 293 293 294 294 308 307 289 329 316 310 322 303 296 289
273 274 282 300 297 299 291 291 293 292 300 312 304 297 293 292 292 290 291 278 283 314 316 318 324 326 325 339 337 348 353 332 304 292 283 300 289 274 300 273 288 278 265
282 286 282 271 265 265 269 274 279 281 288 286 279 278 281 280 276 284 286 283 289 294 303 300 307 309 306 326 318 322 340 308 306 303 294 278 284 274 273 268 251 259 252
263 270 270 270 272 273 275 272 271 269 270 270 266 266 266 275 283 276 275 277 276 279 277 291 299 309 306 307 305 311 307 297 299 281 287 266 263 271 275 257 264 239 249
258 257 258 256 257 261 276 279 277 274 265 263 262 260 256 260 259 261 267 266 264 263 271 289 274 288 289 279 277 281 311 283 279 274 273 265 263 251 248 250 252 243 246
263 262 262 261 261 263 257 268 278 284 279 273 278 277 281 282 285 287 287 259 260 253 256 271 276 285 277 275 266 267 274 290 288 269 265 258 257 260 255 244 242 239 242
268 267 263 265 265 266 264 259 266 272 278 274 260 258 273 270 273 272 291 273 257 253 250 251 272 260 271 269 256 254 257 252 251 251 255 266 269 263 259 255 260 252 236

GFSMW_2pvu_pres_066.txt.gz
Presure
163 196 204 182 179 172 179 178 171 188 178 160 179 175 161 160 166 157 147 145 153 157 152 155 161 161 151 161 160 149 160 160 149 169 170 149 172 169 123 177 174 170 168
146 164 196 148 178 197 161 186 177 181 181 189 165 182 174 165 179 163 161 161 159 143 145 155 137 146 150 142 160 164 155 159 159 145 170 166 151 131 181 176 170 180 176
180 176 172 164 180 186 181 167 160 163 162 169 178 172 176 192 176 185 150 163 162 156 163 162 164 159 162 161 153 167 173 175 139 179 157 175 169 169 170 176 183 182 159
191 181 177 164 160 166 167 194 198 189 165 168 167 172 181 175 186 192 186 170 177 167 165 166 173 173 173 170 149 165 154 155 169 174 173 173 174 129 178 121 171 181 140
177 185 178 170 156 177 166 162 172 187 195 200 227 161 167 165 176 189 191 192 188 156 171 172 178 178 169 171 171 150 189 172 180 183 142 191 184 200 144 123 143 115 98
237 198 147 180 170 163 164 160 168 164 180 183 160 139 146 170 174 161 172 177 185 220 152 189 173 155 177 187 195 172 183 148 143 166 160 180 170 176 110 185 193 152 176
231 219 181 159 174 180 172 162 158 155 154 174 171 188 191 131 186 180 174 181 141 160 197 196 164 200 197 178 148 145 145 178 151 159 167 165 160 167 177 179 176 200 202
184 223 227 165 190 192 190 181 174 168 165 157 167 168 183 187 199 199 154 155 164 186 161 182 183 159 154 161 152 189 137 166 184 185 186 157 170 177 191 192 176 167 200
192 179 178 190 203 231 187 199 191 168 176 174 166 165 162 162 185 194 202 196 186 165 157 191 192 193 171 193 190 174 202 204 202 212 171 184 167 167 163 172 174 172 180
199 192 192 192 180 169 195 213 187 166 183 187 179 180 174 167 169 168 180 206 221 188 184 168 191 202 204 211 195 182 180 174 190 220 225 169 170 164 158 185 167 191 179
268 254 238 194 190 194 197 185 200 219 182 168 171 178 187 183 177 177 175 179 201 203 207 208 207 214 217 217 225 198 163 230 188 204 225 209 199 183 178 178 183 186 196
303 271 251 254 241 204 206 207 201 201 209 180 175 173 221 229 197 180 181 185 185 173 173 172 171 171 170 167 165 184 101 215 174 218 222 225 229 219 196 229 230 222 215
287 287 316 293 253 249 240 226 215 207 198 198 194 184 182 183 184 183 182 180 185 183 179 174 178 179 175 177 174 180 184 188 190 203 208 219 208 228 219 220 218 214 217
280 283 283 293 294 274 284 260 248 222 217 215 205 204 203 201 199 194 206 196 202 196 193 197 202 177 210 208 213 215 215 213 217 218 217 224 225 226 227 229 227 223 228
263 296 290 273 275 282 287 291 268 259 244 237 261 232 236 235 230 225 223 223 220 217 217 217 224 225 222 217 207 228 230 230 227 227 233 92 235 196 135 104 221 234 246
269 262 255 254 291 288 273 278 284 276 261 250 240 237 240 249 244 240 234 232 231 231 232 233 228 225 227 228 129 238 237 240 239 243 239 236 238 237 243 247 260 262 250
262 260 256 261 261 261 271 257 292 299 293 279 279 276 261 249 246 243 238 232 230 229 232 228 227 232 238 239 243 243 246 248 250 250 249 259 263 259 255 253 252 255 256
272 278 279 283 265 274 289 258 260 262 259 260 262 260 287 295 290 283 283 287 280 266 285 277 311 283 279 293 302 332 271 286 295 281 273 293 273 258 268 255 263 259 261
268 276 280 278 281 285 286 286 279 286 304 304 310 297 285 293 292 285 285 294 292 276 276 278 301 302 285 305 304 305 310 308 308 305 321 335 280 340 320 332 286 322 327
275 269 251 280 285 274 267 265 264 267 283 283 285 291 290 293 297 293 290 292 295 291 296 320 257 290 280 284 322 327 329 344 333 294 307 309 296 289 281 278 286 296 291
264 266 267 270 268 270 269 269 272 269 275 274 304 299 302 309 293 319 320 291 285 283 301 296 298 279 303 298 281 300 293 290 304 334 353 338 336 324 314 317 319 273 299
286 281 287 304 299 288 288 293 299 295 299 291 289 284 286 294 295 298 288 285 277 282 286 291 288 289 290 290 293 306 310 330 311 319 332 310 308 298 294 295 290 283 277
260 261 261 268 275 274 271 270 280 278 269 264 262 265 270 273 286 283 277 277 280 277 279 278 281 273 269 277 287 280 310 303 293 325 305 308 287 282 278 269 264 266 254
261 261 259 257 257 258 256 259 272 274 273 275 277 275 273 271 269 265 266 265 269 270 267 262 259 266 261 262 277 285 293 281 279 280 299 287 279 283 276 274 254 257 261
269 266 263 261 260 259 257 255 254 253 255 257 255 273 278 276 273 266 263 265 265 275 282 293 283 257 252 251 269 285 275 279 265 270 268 274 295 277 273 264 264 262 252
269 270 268 267 264 265 266 264 259 261 259 261 265 263 264 278 281 274 269 276 274 277 277 275 278 269 256 254 252 271 252 267 263 260 259 255 252 251 247 253 260 255 256

GFSMW_2pvu_pres_069.txt.gz
Presure
191 177 167 160 156 152 176 181 182 177 161 173 166 141 177 174 153 171 178 158 159 136 175 147 153 151 161 157 161 149 160 164 164 141 158 167 157 163 151 152 169 169 173
183 189 176 167 161 175 150 171 188 180 177 148 178 169 164 168 168 165 170 178 157 156 168 172 159 151 164 169 167 157 160 158 168 165 168 161 172 150 173 173 172 165 181
179 193 144 175 168 163 172 169 176 192 174 178 167 183 185 180 173 183 188 179 165 164 162 166 181 173 167 176 180 171 151 168 173 138 143 152 152 175 180 174 139 166 141
182 185 207 200 174 177 100 163 187 190 175 163 164 172 178 185 189 181 177 156 182 168 183 178 167 163 182 186 188 193 158 160 137 142 166 142 175 166 165 143 142 145 163
190 185 190 182 207 173 171 165 161 188 164 181 173 171 177 177 167 166 179 185 186 165 167 171 173 174 181 180 183 200 203 201 196 143 184 182 171 144 149 173 169 195 160
193 188 186 185 180 184 191 174 170 173 173 172 186 184 172 182 188 179 170 170 175 165 173 167 180 186 178 179 201 193 196 157 145 187 193 137 146 149 148 143 182 168 184
189 182 188 187 195 220 182 196 168 167 162 160 183 163 161 178 178 163 170 180 187 204 197 184 179 139 174 176 189 163 184 180 142 149 160 197 165 171 177 194 159 195 198
216 202 162 185 186 157 185 214 208 179 178 164 168 168 161 162 155 163 151 161 160 177 185 174 183 210 196 193 164 162 162 140 194 188 184 153 155 192 163 160 202 161 185
191 207 199 170 176 183 189 189 211 211 182 171 175 193 166 176 161 158 161 165 162 164 163 168 170 170 179 178 186 188 191 197 193 211 203 167 168 203 216 213 221 247 197
282 214 188 209 171 178 187 198 206 203 191 186 175 174 174 176 179 179 177 166 163 172 170 169 167 167 168 161 171 177 174 184 201 203 224 210 171 167 174 171 174 179 180
268 272 186 222 202 185 172 177 204 220 211 212 211 186 176 163 170 169 169 188 172 174 160 178 178 177 176 176 177 168 170 169 171 169 172 180 164 198 198 182 181 198 189
288 150 278 288 287 193 192 174 201 212 223 217 196 176 180 181 181 182 163 172 177 188 198 190 175 162 186 186 184 178 178 177 179 178 177 176 180 147 181 181 184 191 205
278 291 309 279 294 308 313 217 192 188 199 234 235 219 166 165 172 175 194 194 191 184 133 186 179 179 180 189 194 195 171 147 193 171 180 179 183 230 192 154 217 215 220
283 288 270 293 292 287 291 302 275 214 205 200 191 182 183 179 187 185 186 182 196 196 181 177 178 177 176 179 159 161 180 182 181 185 205 215 209 215 222 230 226 164 235
262 281 288 290 289 288 286 277 285 300 274 204 203 202 199 199 196 195 192 196 203 186 154 208 211 211 209 184 203 213 206 213 208 212 228 228 232 237 239 232 239 238 243
277 283 281 290 263 290 292 263 263 308 300 296 305 300 296 280 241 237 236 238 235 227 218 215 216 132 208 209 214 166 236 241 237 237 237 230 237 239 244 245 247 249 259
286 272 277 281 279 275 274 276 272 256 288 289 292 284 285 285 272 271 262 257 255 259 249 241 234 235 237 252 238 240 242 241 242 242 248 251 249 259 283 358 307 348 300
272 270 274 266 265 263 258 257 258 260 265 264 263 268 280 289 291 286 291 299 280 278 263 259 253 249 250 248 225 251 252 255 261 281 285 280 295 290 295 311 282 324 308
267 268 262 260 268 271 270 268 267 266 253 253 250 253 252 256 253 252 254 262 276 283 253 296 272 293 323 276 277 291 280 280 275 329 268 264 284 291 299 300 311 306 252
279 271 273 275 277 275 271 264 264 262 290 280 271 288 281 289 279 284 267 300 301 302 304 305 305 303 284 275 279 302 267 263 281 322 317 310 326 327 327 330 251 256 286
271 260 260 269 274 271 273 274 279 267 272 267 269 278 268 275 269 282 282 283 316 312 323 317 307 298 281 284 288 302 302 302 295 305 309 311 311 320 339 329 326 332 319
274 275 271 265 266 263 261 260 261 265 270 284 287 276 266 274 281 292 296 304 296 297 300 301 303 295 288 281 285 283 280 281 289 289 294 309 307 328 319 307 300 296 289
287 276 267 271 287 295 286 277 282 288 279 282 307 313 312 302 302 299 292 285 279 279 297 285 284 280 284 277 280 283 276 276 271 268 302 294 280 321 299 288 286 274 279
353 310 289 278 270 265 265 268 268 266 266 268 274 275 275 273 276 274 269 270 273 273 267 280 275 274 266 272 271 264 258 260 262 257 287 288 278 278 297 291 282 275 272
311 328 340 305 287 277 269 265 260 258 257 254 257 261 261 263 272 273 269 274 276 274 273 273 267 267 261 264 271 279 278 260 254 253 281 280 266 274 266 272 276 267 272
322 305 308 321 317 291 283 276 268 265 261 257 255 254 256 256 255 253 255 259 255 272 278 271 269 266 267 273 280 283 273 264 255 259 265 262 269 262 261 254 251 259 252

GFSMW_2pvu_pres_072.txt.gz
Presure
224 199 172 167 165 180 176 165 141 144 133 140 165 168 152 164 164 152 170 172 177 162 162 158 165 162 150 168 169 180 150 155 175 169 138 130 166 167 173 182 137 151 157
186 195 197 217 160 158 176 159 162 149 150 166 152 166 140 180 169 163 180 158 158 176 161 140 164 171 170 162 169 166 187 177 166 169 167 169 178 169 181 141 189 192 185
205 197 206 194 163 153 164 168 166 183 149 187 156 160 150 176 176 147 187 186 186 174 173 180 182 175 173 184 177 185 187 178 157 184 186 187 169 173 167 166 165 183 167
196 196 194 203 198 161 146 165 160 174 162 164 153 163 165 172 153 145 188 193 192 186 187 187 176 174 186 180 182 195 168 187 178 176 166 179 178 153 161 133 205 150 162
199 209 201 203 200 193 162 166 164 168 160 158 164 176 160 173 160 172 178 184 164 175 152 153 195 190 178 158 175 176 185 170 182 170 198 190 192 194 185 176 143 147 154
207 188 180 198 200 151 140 173 171 167 167 160 162 147 149 156 168 166 161 172 169 169 181 171 175 170 179 186 184 197 182 178 155 186 173 185 181 187 181 183 205 168 197
209 209 206 189 200 193 160 188 185 177 169 167 165 180 158 164 163 149 168 162 178 174 177 175 153 172 171 165 187 170 172 172 167 178 186 155 175 179 169 163 179 175 176
209 208 194 208 205 212 195 180 176 174 177 169 203 205 159 187 188 168 161 159 161 157 184 193 185 195 201 199 188 166 190 144 177 186 143 162 155 181 183 169 179 168 167
219 218 214 213 210 207 205 206 192 195 171 189 177 169 170 167 163 168 164 169 163 165 153 167 169 182 167 178 161 158 162 162 168 171 181 167 172 162 170 187 196 176 176
225 197 205 218 208 194 207 208 198 184 169 186 192 195 213 209 170 170 176 171 172 168 165 160 169 164 161 160 166 173 166 177 171 172 167 160 180 197 188 188 173 194 182
231 218 219 195 202 196 188 187 201 201 186 183 181 183 171 190 178 180 176 191 205 193 156 168 173 177 174 167 168 173 170 178 190 199 191 195 182 192 193 187 194 184 187
284 232 227 232 211 214 215 209 207 196 201 198 168 169 167 165 167 180 187 148 189 198 197 178 155 174 198 187 187 192 181 190 181 195 179 173 212 187 184 181 181 173 211
294 292 295 259 230 226 217 210 198 199 176 169 170 195 193 178 177 170 163 172 178 175 193 194 191 187 202 198 178 184 194 187 185 193 201 207 189 183 199 193 197 184 234
266 268 272 273 276 283 254 222 202 208 186 186 192 197 186 174 163 179 176 182 170 160 164 191 189 207 199 185 189 177 182 212 205 208 196 186 205 197 193 167 191 193 201
269 273 278 279 280 279 280 284 287 300 216 220 229 218 197 200 205 160 193 189 186 180 183 180 180 201 213 211 208 209 206 191 190 197 196 193 192 199 204 209 224 252 249
292 294 297 301 279 293 302 315 307 276 286 301 301 302 296 302 235 227 183 187 209 202 182 180 183 183 185 238 236 232 182 189 192 194 204 239 242 235 166 251 246 256 253
296 289 286 286 278 274 275 282 272 262 258 287 297 298 304 300 296 287 302 259 250 239 236 212 209 193 196 181 176 214 219 247 250 250 220 263 263 263 258 255 253 261 283
310 309 290 298 295 280 277 277 278 279 282 281 272 258 258 262 271 264 264 281 283 283 282 281 282 279 279 280 281 272 275 273 266 289 316 295 287 282 283 257 259 280 262
300 290 287 285 295 301 301 295 283 276 276 273 274 281 274 272 274 271 278 251 250 252 261 260 260 273 287 289 311 319 275 267 316 293 289 251 274 248 299 292 261 312 326
273 265 278 283 282 274 273 273 273 268 265 266 267 265 265 276 279 264 263 266 268 263 265 242 243 241 273 254 252 277 276 290 308 293 316 286 258 310 281 310 314 312 315
212 289 277 269 265 275 274 274 275 275 272 274 273 276 276 278 273 262 262 275 288 288 281 286 288 296 294 299 316 316 307 287 290 282 295 294 298 292 294 296 313 312 329
376 352 316 295 283 273 267 267 263 265 266 268 268 264 268 273 274 273 274 279 277 272 274 275 278 290 284 285 302 321 314 305 290 278 286 279 289 282 280 293 298 326 309
286 315 364 352 336 313 289 284 271 267 267 269 265 264 266 261 261 262 267 270 273 314 298 292 277 304 299 293 303 303 288 281 281 278 280 281 279 270 268 286 292 304 294
291 299 306 353 339 337 331 318 289 282 280 275 273 272 268 270 271 270 267 271 279 305 305 298 301 292 279 276 280 281 282 275 274 270 271 268 266 258 259 287 263 288 281
278 288 298 314 340 330 319 317 329 343 302 280 276 274 273 277 286 289 283 277 274 276 276 281 280 273 269 271 269 270 270 272 260 265 277 289 280 264 256 288 254 269 275
280 287 296 312 324 333 325 312 308 311 146 331 300 281 273 266 266 265 270 266 265 264 263 272 272 268 267 272 276 269 271 267 261 269 278 285 273 264 256 262 272 271 264

GFSMW_2pvu_pres_075.txt.gz
Presure
235 207 210 185 186 195 186 158 166 165 172 170 165 147 173 134 156 143 161 135 168 169 176 178 179 173 176 165 169 169 165 160 154 161 188 162 195 181 180 192 175 177 174
219 226 233 225 174 171 165 166 162 180 162 177 158 168 157 160 130 156 163 159 153 160 195 175 174 186 159 161 169 197 143 198 179 185 173 154 190 192 143 163 176 163 186
207 205 206 197 182 176 167 174 181 169 169 180 173 165 171 157 149 141 166 160 150 135 191 170 154 168 174 152 188 198 195 171 198 194 182 160 187 182 182 178 179 169 180
225 234 236 223 190 180 174 163 179 174 171 137 178 142 168 170 158 172 166 178 127 178 159 167 168 178 180 143 176 192 199 181 196 186 157 179 174 178 176 172 168 164 176
215 205 216 210 236 189 171 166 173 159 158 168 193 169 162 173 171 155 160 171 161 179 159 158 159 162 171 141 193 199 214 201 179 190 152 189 163 157 162 167 158 204 163
204 207 223 207 207 205 192 169 174 173 162 172 164 169 180 163 175 179 175 158 169 175 184 168 164 171 187 155 172 182 200 180 160 172 192 190 169 196 167 161 160 175 178
206 218 210 213 207 207 207 190 210 171 205 167 167 173 162 163 167 182 157 166 169 163 162 171 178 183 173 189 179 183 160 171 170 177 179 171 171 166 170 173 172 180 155
223 215 222 219 204 223 209 206 275 206 209 196 198 180 145 171 157 159 153 172 156 179 161 165 167 173 164 157 168 185 166 167 170 149 174 175 178 174 180 166 162 162 182
192 203 218 207 226 221 190 222 201 192 178 195 171 172 193 175 153 185 164 164 170 162 158 159 162 178 163 187 192 172 165 211 180 187 190 186 170 164 189 177 201 220 168
218 218 207 203 207 213 225 209 215 203 193 200 183 190 183 172 161 166 181 161 166 162 165 159 173 179 191 192 173 169 190 191 188 193 174 177 187 188 167 199 203 167 194
215 212 209 224 209 207 197 209 194 197 209 200 169 185 150 198 170 163 156 136 174 178 169 169 166 168 198 175 164 151 161 188 171 200 167 202 194 203 202 175 185 185 194
233 237 223 202 205 213 203 190 225 206 217 190 202 223 186 138 174 184 197 167 159 152 175 153 170 165 167 158 194 215 169 145 163 185 170 188 179 224 210 188 209 203 134
239 230 226 215 215 222 202 202 201 202 197 194 200 198 195 195 203 220 180 209 211 191 192 168 194 178 182 156 177 152 167 160 179 166 181 188 204 213 168 207 201 186 171
236 249 236 231 227 222 226 220 220 207 195 194 209 210 196 195 197 198 189 172 194 197 223 189 173 192 161 167 188 205 188 185 185 174 173 188 188 187 204 190 196 202 192
291 290 243 229 244 235 224 231 225 218 208 207 206 194 197 196 173 152 177 169 174 175 200 194 198 193 209 190 182 197 195 203 186 189 174 166 188 194 208 208 186 203 202
273 286 270 273 301 188 213 203 235 236 224 211 210 209 201 200 198 198 198 144 208 192 196 194 210 195 183 183 192 214 196 198 196 191 182 236 234 201 196 240 201 243 243
270 268 272 274 277 279 275 270 268 239 212 214 228 201 226 226 225 222 201 214 213 208 211 210 203 199 199 198 203 184 163 177 214 205 224 206 241 241 238 233 235 253 286
302 283 270 272 291 308 295 296 293 285 294 267 232 228 218 213 213 225 216 217 216 213 214 217 215 212 207 213 217 224 238 248 287 289 262 317 290 258 280 266 245 290 272
366 345 327 316 317 325 331 325 298 317 320 333 323 323 295 284 276 278 251 280 272 271 236 230 233 262 267 278 281 286 293 287 297 307 308 305 306 286 298 252 249 282 286
285 299 322 336 340 317 290 297 299 294 278 309 306 314 323 295 294 285 294 290 290 275 264 269 264 292 290 259 264 262 266 272 276 170 254 246 239 243 269 321 310 288 302
285 275 288 278 293 314 381 329 301 288 288 289 293 293 295 293 292 300 292 286 281 281 279 281 275 273 267 245 246 256 285 265 283 285 280 271 312 295 311 303 296 292 288
270 279 280 282 289 274 292 305 356 334 294 288 280 279 278 281 281 283 279 277 275 271 268 263 261 261 273 275 249 258 262 275 275 276 306 327 310 305 291 289 284 291 280
268 271 278 286 296 293 205 294 310 331 359 338 294 282 279 279 280 268 268 272 277 276 275 274 270 252 278 280 281 281 288 299 288 288 284 297 297 281 284 283 287 271 267
272 272 274 275 283 287 290 294 302 317 322 336 330 331 296 283 279 272 275 273 271 266 266 265 264 268 279 264 272 269 322 303 285 297 292 278 279 278 274 275 267 284 264
270 274 276 277 285 293 298 305 314 322 318 320 329 319 316 324 304 284 276 273 266 266 266 266 270 272 268 267 270 311 308 302 292 281 275 271 268 267 265 264 286 283 263
271 275 280 286 298 307 317 328 329 321 319 317 324 327 313 306 258 193 297 289 279 276 273 265 266 271 290 287 282 277 294 296 277 268 269 269 265 261 261 272 287 274 261

GFSMW_2pvu_pres_078.txt.gz
Presure
217 207 210 196 154 165 178 171 181 153 182 185 177 155 159 148 166 156 127 154 154 170 124 150 157 135 181 108 150 169 161 154 172 183 164 143 152 199 194 184 201 183 192
214 201 185 225 190 199 186 168 168 172 174 176 200 189 178 179 162 155 153 184 157 158 183 137 165 152 153 164 168 155 167 172 137 158 151 170 176 169 166 169 176 172 165
206 215 217 209 206 192 180 210 177 193 181 182 191 168 151 171 150 153 171 150 148 151 158 156 164 138 170 135 174 179 151 166 177 190 166 151 147 204 163 181 181 174 184
208 200 219 193 180 180 205 196 185 178 179 181 193 175 187 161 191 131 194 143 194 174 149 162 159 167 168 132 163 151 191 150 191 168 155 153 153 144 149 162 166 148 191
213 200 208 198 179 197 200 200 215 180 174 162 169 164 173 180 195 199 131 162 188 139 179 178 161 176 175 156 186 177 156 126 150 177 156 195 152 224 154 155 150 186 151
224 207 229 231 235 225 206 188 203 217 174 186 175 189 177 180 161 178 158 175 162 182 188 173 165 166 175 182 157 179 150 175 182 188 146 200 165 184 155 180 174 205 216
205 215 216 212 209 222 218 215 208 197 185 198 174 179 168 188 168 181 172 143 161 173 171 191 189 180 172 167 165 159 180 169 193 173 189 155 179 182 204 173 178 192 187
210 214 201 223 203 206 198 197 190 194 215 209 171 190 180 182 167 173 173 166 176 183 192 168 176 153 179 161 159 167 161 189 195 171 180 190 162 188 207 160 176 181 206
227 214 223 195 193 191 203 219 218 200 198 190 186 175 191 180 183 187 167 169 171 195 155 185 198 165 175 166 180 157 174 180 176 172 168 173 200 184 149 187 202 171 163
212 222 212 211 216 222 213 219 210 201 199 188 200 191 192 179 175 177 176 178 173 190 178 175 167 178 186 180 161 185 166 181 184 170 195 178 167 196 183 164 160 164 199
220 214 207 221 212 207 223 227 227 202 200 228 192 187 182 177 192 181 187 180 166 166 194 177 168 174 175 177 191 175 176 164 180 188 166 183 189 185 177 168 167 199 196
223 223 219 215 214 200 206 202 203 214 217 225 225 208 189 182 181 178 175 180 179 173 170 205 199 209 172 164 165 186 193 193 185 156 180 199 196 148 198 200 177 220 182
242 228 220 221 231 217 203 222 206 210 218 204 203 184 232 199 199 203 213 203 183 178 201 167 164 155 143 174 165 153 183 179 174 188 180 188 135 180 183 180 225 158 196
241 237 226 224 218 222 213 207 214 211 203 216 203 214 220 195 190 185 201 181 199 143 174 197 180 183 201 169 168 201 171 151 187 173 190 173 199 220 179 234 205 190 196
241 252 220 235 230 218 221 213 219 213 217 205 194 192 206 223 223 217 203 217 209 206 206 152 200 158 206 173 200 218 194 170 183 192 188 209 162 200 219 176 220 170 201
278 238 276 233 223 234 226 214 219 216 212 211 215 212 223 229 212 218 214 197 192 170 192 193 189 151 158 188 155 221 211 197 144 144 163 211 194 191 197 199 214 200 222
312 317 286 292 235 234 217 197 226 224 220 214 215 205 208 208 219 214 206 204 199 201 198 190 200 214 195 213 198 201 215 208 200 197 226 203 202 204 207 209 216 213 213
300 328 381 380 368 336 242 237 229 235 216 209 224 219 218 214 216 200 203 205 194 212 221 203 199 222 195 209 189 200 204 212 215 209 205 195 210 212 221 217 217 213 225
300 307 304 299 313 320 343 388 384 318 245 235 224 231 226 229 219 204 208 225 221 213 210 212 204 210 209 206 204 202 185 201 206 214 207 212 212 223 211 157 204 317 269
263 258 248 297 302 302 300 303 305 313 319 347 391 242 247 240 239 228 223 225 215 217 224 222 225 226 220 219 224 221 214 230 229 216 197 214 184 225 250 293 279 209 239
202 250 273 282 287 297 298 299 300 301 310 292 303 328 351 362 324 301 281 259 245 243 233 227 228 227 240 211 217 218 221 218 217 221 262 244 291 280 278 240 305 287 306
250 249 237 265 208 281 276 282 291 291 293 295 305 294 292 315 338 345 306 296 287 298 303 286 284 275 276 272 275 285 286 287 288 273 266 274 281 280 262 266 262 283 298
253 249 251 269 282 194 205 278 280 281 290 297 301 303 311 278 295 321 336 335 302 302 285 285 272 261 261 260 261 264 283 281 276 280 263 266 259 284 284 277 292 308 298
248 243 264 271 274 282 289 288 288 296 313 312 316 302 302 303 302 300 311 322 334 320 288 295 287 282 285 284 278 273 275 276 286 271 266 259 274 286 279 292 302 295 281
254 252 270 279 287 292 295 326 321 318 316 317 313 309 310 298 296 304 293 307 318 328 318 300 284 279 276 274 268 267 271 274 265 277 275 264 261 270 287 302 292 281 279
250 273 261 294 302 318 336 343 350 356 356 343 334 321 317 306 306 315 306 316 307 317 321 320 315 287 280 274 268 273 271 267 266 266 268 274 277 286 304 290 283 273 270